Tracking 27126 objects as of 30-Mar-2023
HD Live streaming from Space Station
objects crossing your sky now

SL-12 R/B(2)

Track SL-12 R/B(2) now!


NORAD ID: 17875
Int'l Code: 1984-090F
Perigee: 35,436.8 km
Apogee: 35,600.2 km
Inclination: 10.1 °
Period: 1,422.1 minutes
Semi major axis: 41889 km
RCS: 2.018 m2 (large)
Launch date: August 24, 1984
Source: Commonwealth of Independent States (former USSR) (CIS)
Launch site: TYURATAM MISSILE AND SPACE COMPLEX (TTMTR)

Note: This is a ROCKET BODY
Your satellite tracking list
Your tracking list is empty




NASA's NSSDC Master Catalog

Two Line Element Set (TLE):
1 17875U 84090F   23088.31438206  .00000085  00000-0  00000-0 0  9990
2 17875  10.1493 315.6943 0019504 137.7031 227.2160  1.01261624144967
Source of the keplerian elements: AFSPC